Location: Cactus School
(34.5700°N, 118.0931°W)
Time: 09:16:13
(UTC-07:00)

Vanguard 1 Rocket - Pass Details

Date: 19 April 2024
Orbit: 650 x 4220 km, 34.3° (Epoch: 22 May)

Event Time Altitude Azimuth Distance (km) Brightness Sun altitude
Exits shadow 04:39:44 14° 214° (SSW) 6,573 11.2 -19.0°
Drops below altitude 10° 04:47:48 10° 194° (SSW) 7,278 11.6 -17.6°
Sets 04:59:02 0° 174° (S) 8,446 12.1 -15.5°
